Weather in Leova

Moldova     46°28′45″N   28°15′27″E
temp.,
°C
wind,
m/s
gust,
m/s
humid.,
%
clouds,
%
prec.,
mm/h
press.,
hPa
HPBL,
m
16 september, thu
thu1600:00+17ene1160100 0.0 101811
03:00+16ne1164100 0.0 101811
06:00+17ene116312 0.0 101712
09:00+19e22585 0.0 1018315
12:00+25ese22425 0.0 10181248
15:00+27sse22346 0.0 10162246
18:00+27sse11335 0.0 10152114
21:00+21se6115041 0.0 1016277
17 september, fri
fri1700:00+18sse4106716 0.0 1016265
03:00+16se3378100 0.0 101555
06:00+16sse3481100 0.0 101496
09:00+21s6105614 0.0 1013457
12:00+28s7932100 0.0 10111348
15:00+30sw7825100 0.0 10092443
18:00+28s5831100 0.0 1008736
21:00+21s4762100 0.1 1008159
18 september, sat
sat1800:00+19s41085100 2.0 1009258
03:00+18s3683100 2.1 1008193
06:00+18s1286100 0.4 100841
09:00+17nnw478289 0.4 1009350
12:00+19nnw4572100 0.3 1010627
15:00+18nnw347289 0.3 1011428
18:00+20nne33571 0.0 1010624
21:00+17nne1169100 0.0 101212
19 september, sun
sun1900:00+15n11724 0.0 101211
03:00+14sw11764 0.0 101211
06:00+13ssw11812 0.0 101210
09:00+18ssw23655 0.0 1012231
12:00+24wsw682921 0.0 10112328
15:00+26w710245 0.0 10102964
18:00+25wnw7102690 0.0 10101891
21:00+17nnw6115537 0.0 1012320
20 september, mon
mon2000:00+13n6106982 0.0 1013404
03:00+12nnw586776 0.0 1014451
06:00+10nnw597140 0.0 1014478
09:00+11nnw587192 0.0 1015625
12:00+12nnw676496 0.1 1015860
15:00+12nnw7956100 0.1 10151005
18:00+13nnw794692 0.0 10151240
21:00+9nnw6115824 0.0 1017790